User: anonymous   Login
Location: Unspecified
(0.0000°N, 0.0000°E)
Time: 01:00:27
(UTC+00:00)
Language:

TIANMU-1 11 - Orbit

View from above orbital plane
View from above orbital plane
View from above satellite
View from above satellite

Ground track
Ground track

The orbit is defined by the following mean orbital elements,

1 58645U          26145.57476008 +.00000000 +00000-0 +19219-3 0 00001
2 58645  97.3461 167.4903 0010845  86.6125 273.6355 15.26720317    01
Epoch (UTC): 25 May 2026 13:47:39
Eccentricity: 0.0010845
inclination: 97.3461°
perigee height: 478 km
apogee height: 493 km
right ascension of ascending node: 167.4903°
argument of perigee: 86.6125°
revolutions per day: 15.26720317
mean anomaly at epoch: 273.6355°

The dashed part of the orbit path shows where the satellite is in the earth's shadow,  

DLR